Find STARLINK-37943

NORAD ID: 799501017 Int'l Des: 2026-143T Constellation: starlink operational

現在のビュー

3D地球を読み込み中...

About STARLINK-37943

STARLINK-37943 (NORAD 799501017) is a starlink constellation satellite launched Jun 15, 2026

STARLINK-37943について

説明を読み込み中...

次回通過

Passes for default location (London). Set your location on the main map for personalized predictions.

高度履歴

Loading altitude history...

軌道要素

1 99999C 2026143T 26173.19215278 .00473420 00000-0 710460-4 0 1733
2 99999 97.2816 216.0540 0011232 273.1086 209.4924 16.04338226 10
Epoch: Jun 22, 2026 • Age: 3 hours